Total_Precipitation_Accumulation
1.11 1.16 1.65 2.35 2.19 1.44 1.04 0.68 0.39 0.42 0.39 0.21 0.12 0.12 0.28 0.56 0.73 0.90 0.73 0.51 0.34 0.29 0.29 0.41 0.53 0.47 0.41 0.37 0.33 0.31 0.34 0.34 0.28 0.27 0.26 0.21 0.16 0.16 0.16 0.14 0.11 0.11 0.13 0.15 0.17 0.22 0.28 0.34 0.40
1.00 1.61 2.25 2.66 1.90 1.24 1.12 0.76 0.51 0.35 0.26 0.16 0.12 0.10 0.20 0.24 0.23 0.40 0.80 0.84 0.39 0.35 0.34 0.39 0.59 0.58 0.53 0.45 0.42 0.42 0.42 0.40 0.34 0.29 0.27 0.24 0.20 0.18 0.19 0.16 0.14 0.13 0.15 0.19 0.20 0.21 0.26 0.33 0.40
1.32 2.07 2.62 2.29 1.42 1.17 1.19 0.77 0.50 0.27 0.16 0.15 0.13 0.11 0.17 0.24 0.30 0.54 0.80 0.65 0.38 0.34 0.36 0.50 0.67 0.63 0.63 0.56 0.51 0.50 0.49 0.46 0.41 0.35 0.33 0.31 0.28 0.23 0.22 0.21 0.20 0.21 0.22 0.23 0.24 0.24 0.28 0.34 0.34
1.52 2.12 2.15 1.62 1.21 0.98 0.80 0.61 0.34 0.25 0.17 0.09 0.09 0.14 0.14 0.21 0.38 0.61 0.57 0.42 0.39 0.38 0.38 0.51 0.62 0.59 0.62 0.60 0.61 0.63 0.55 0.51 0.46 0.40 0.40 0.41 0.37 0.32 0.30 0.31 0.34 0.33 0.34 0.32 0.32 0.32 0.35 0.35 0.35
1.73 1.99 1.74 1.27 1.21 0.92 0.64 0.46 0.31 0.30 0.24 0.13 0.08 0.19 0.25 0.29 0.41 0.55 0.60 0.49 0.47 0.47 0.40 0.43 0.52 0.56 0.62 0.61 0.58 0.66 0.65 0.63 0.52 0.44 0.43 0.43 0.41 0.42 0.41 0.45 0.47 0.48 0.47 0.43 0.42 0.41 0.37 0.36 0.39
1.72 1.66 1.44 1.23 1.26 1.06 0.88 0.60 0.41 0.39 0.27 0.14 0.11 0.24 0.30 0.35 0.50 0.57 0.63 0.66 0.62 0.60 0.49 0.41 0.48 0.56 0.61 0.62 0.68 0.80 0.80 0.73 0.59 0.49 0.48 0.48 0.50 0.49 0.49 0.50 0.50 0.56 0.61 0.59 0.53 0.49 0.41 0.38 0.42
1.81 1.57 1.23 0.96 1.07 1.30 1.03 0.73 0.58 0.46 0.31 0.21 0.14 0.26 0.33 0.36 0.45 0.55 0.66 0.76 0.87 0.87 0.73 0.58 0.56 0.60 0.70 0.77 0.82 0.94 0.98 0.90 0.72 0.58 0.58 0.58 0.53 0.49 0.48 0.53 0.55 0.57 0.60 0.60 0.57 0.55 0.49 0.45 0.44
1.54 1.40 1.06 1.01 1.12 1.31 1.04 0.72 0.54 0.40 0.31 0.21 0.18 0.30 0.46 0.42 0.46 0.56 0.64 0.78 0.87 0.93 0.87 0.79 0.74 0.75 0.82 0.88 1.01 1.11 1.21 1.31 1.07 0.78 0.69 0.65 0.55 0.49 0.51 0.53 0.56 0.59 0.67 0.65 0.63 0.62 0.58 0.58 0.53
1.48 1.49 1.28 1.43 1.36 0.97 0.75 0.69 0.46 0.29 0.25 0.22 0.20 0.23 0.31 0.37 0.42 0.51 0.58 0.64 0.65 0.67 0.72 0.77 0.80 0.86 0.86 0.82 0.89 1.11 1.29 1.46 1.20 0.83 0.85 0.77 0.55 0.55 0.60 0.60 0.71 0.75 0.80 0.80 0.78 0.78 0.76 0.73 0.63
1.46 1.34 1.20 1.20 1.02 0.81 0.68 0.60 0.43 0.32 0.28 0.22 0.22 0.25 0.28 0.33 0.42 0.48 0.51 0.55 0.53 0.54 0.51 0.54 0.57 0.66 0.73 0.72 0.93 1.18 1.22 1.34 1.09 0.92 0.95 0.92 0.96 0.90 0.70 0.69 0.87 0.97 1.02 0.96 0.93 0.94 0.87 0.74 0.56
1.17 1.12 0.87 0.68 0.53 0.51 0.48 0.41 0.30 0.30 0.29 0.21 0.22 0.27 0.31 0.34 0.38 0.42 0.45 0.45 0.44 0.42 0.40 0.39 0.41 0.44 0.53 0.74 0.98 1.20 1.25 1.29 1.33 1.36 1.22 1.20 1.15 0.96 0.78 0.75 0.80 0.86 0.94 0.88 0.97 0.96 0.80 0.70 0.56
1.09 0.93 0.75 0.62 0.42 0.37 0.34 0.28 0.27 0.25 0.25 0.19 0.20 0.25 0.33 0.37 0.36 0.35 0.40 0.45 0.48 0.46 0.44 0.38 0.30 0.31 0.39 0.53 0.75 1.03 1.10 1.16 1.24 1.24 1.04 1.13 1.13 0.95 0.88 0.97 1.00 0.97 0.94 1.05 1.09 1.04 0.97 0.80 0.62
1.06 0.88 0.67 0.44 0.36 0.34 0.33 0.31 0.24 0.21 0.20 0.18 0.21 0.29 0.38 0.40 0.38 0.32 0.32 0.37 0.44 0.53 0.61 0.59 0.43 0.37 0.39 0.45 0.50 0.64 0.74 0.85 1.13 1.21 0.95 0.93 0.95 0.99 1.01 0.93 1.06 1.12 1.11 1.10 1.09 0.99 0.93 0.90 0.78
0.97 0.74 0.53 0.40 0.36 0.31 0.33 0.31 0.23 0.23 0.22 0.19 0.20 0.28 0.37 0.42 0.42 0.39 0.36 0.34 0.33 0.36 0.49 0.57 0.55 0.54 0.52 0.45 0.40 0.40 0.46 0.59 0.74 0.76 0.72 0.75 0.78 0.87 1.04 0.97 0.95 1.02 1.20 1.25 1.18 1.07 1.07 1.03 0.85
0.64 0.58 0.55 0.47 0.41 0.39 0.37 0.34 0.20 0.19 0.21 0.17 0.15 0.18 0.22 0.27 0.32 0.36 0.33 0.27 0.25 0.26 0.32 0.42 0.50 0.56 0.58 0.59 0.58 0.48 0.47 0.54 0.56 0.56 0.62 0.69 0.69 0.82 0.98 0.92 0.82 0.81 0.97 1.14 1.25 1.26 1.18 1.04 0.91
0.65 0.59 0.75 0.58 0.52 0.49 0.44 0.33 0.14 0.17 0.15 0.12 0.10 0.11 0.14 0.16 0.17 0.23 0.28 0.27 0.25 0.25 0.25 0.31 0.36 0.43 0.53 0.62 0.69 0.66 0.62 0.58 0.52 0.49 0.47 0.50 0.52 0.60 0.79 0.86 0.76 0.76 0.92 1.11 1.25 1.33 1.32 1.16 1.09
0.75 0.69 0.65 0.57 0.46 0.38 0.28 0.19 0.11 0.11 0.09 0.06 0.06 0.06 0.07 0.09 0.10 0.13 0.16 0.20 0.24 0.25 0.23 0.24 0.28 0.32 0.40 0.51 0.58 0.58 0.57 0.54 0.52 0.52 0.41 0.39 0.41 0.52 0.72 0.90 0.91 0.91 1.00 1.11 1.16 1.31 1.32 1.30 1.18
0.51 0.42 0.41 0.35 0.29 0.23 0.17 0.11 0.09 0.07 0.04 0.04 0.04 0.05 0.04 0.03 0.05 0.08 0.10 0.15 0.23 0.24 0.24 0.24 0.26 0.27 0.31 0.36 0.43 0.48 0.46 0.44 0.50 0.49 0.47 0.51 0.58 0.64 0.83 1.04 1.13 1.24 1.24 1.25 1.39 1.63 1.56 1.34 1.26
0.39 0.24 0.18 0.16 0.14 0.11 0.08 0.06 0.05 0.04 0.02 0.01 0.02 0.02 0.02 0.02 0.03 0.02 0.03 0.06 0.13 0.18 0.18 0.19 0.24 0.26 0.25 0.24 0.29 0.34 0.35 0.44 0.51 0.59 0.64 0.68 0.72 0.79 1.00 1.21 1.42 1.54 1.41 1.38 1.54 1.76 1.85 1.61 1.41
0.38 0.24 0.16 0.15 0.09 0.05 0.05 0.04 0.03 0.03 0.02 0.01 0.01 0.01 0.02 0.02 0.02 0.02 0.01 0.01 0.02 0.05 0.09 0.13 0.15 0.17 0.17 0.18 0.23 0.32 0.39 0.45 0.58 0.74 0.85 0.87 0.85 0.89 0.94 1.15 1.34 1.40 1.43 1.43 1.50 1.64 1.88 1.77 1.57
0.20 0.15 0.12 0.13 0.06 0.03 0.04 0.04 0.03 0.03 0.02 0.02 0.02 0.03 0.03 0.03 0.03 0.03 0.02 0.01 0.01 0.02 0.03 0.06 0.11 0.14 0.14 0.22 0.41 0.68 0.92 1.01 1.02 1.04 1.19 1.28 1.24 1.18 1.16 1.18 1.32 1.40 1.50 1.49 1.50 1.51 1.66 1.74 1.66
0.15 0.09 0.07 0.07 0.05 0.04 0.03 0.03 0.03 0.04 0.05 0.06 0.06 0.07 0.07 0.08 0.06 0.05 0.03 0.03 0.02 0.03 0.03 0.04 0.09 0.15 0.18 0.35 0.68 1.07 1.39 1.48 1.49 1.61 1.65 1.71 1.63 1.49 1.47 1.47 1.56 1.49 1.46 1.40 1.40 1.41 1.51 1.75 1.75
0.16 0.10 0.05 0.04 0.04 0.05 0.03 0.03 0.04 0.08 0.12 0.16 0.16 0.17 0.18 0.15 0.11 0.08 0.07 0.06 0.08 0.10 0.11 0.13 0.20 0.34 0.50 0.65 0.83 1.13 1.32 1.44 1.58 1.74 1.88 1.99 2.11 2.08 1.99 1.92 1.77 1.58 1.49 1.46 1.49 1.47 1.51 1.58 1.63
0.12 0.07 0.04 0.02 0.02 0.03 0.02 0.04 0.09 0.16 0.21 0.24 0.25 0.25 0.24 0.19 0.13 0.10 0.10 0.11 0.16 0.24 0.27 0.31 0.41 0.51 0.58 0.70 0.84 0.98 1.07 1.23 1.43 1.58 1.75 1.88 2.00 2.03 1.97 1.84 1.61 1.43 1.37 1.42 1.51 1.51 1.52 1.50 1.53
0.06 0.05 0.06 0.06 0.06 0.06 0.03 0.07 0.16 0.17 0.17 0.20 0.21 0.18 0.15 0.15 0.15 0.14 0.13 0.19 0.24 0.33 0.37 0.44 0.52 0.62 0.65 0.73 0.83 0.91 0.97 1.10 1.27 1.32 1.36 1.38 1.38 1.42 1.45 1.45 1.41 1.35 1.29 1.35 1.52 1.58 1.59 1.58 1.54
0.03 0.03 0.07 0.13 0.10 0.08 0.05 0.14 0.24 0.16 0.10 0.08 0.10 0.11 0.12 0.17 0.21 0.20 0.20 0.27 0.33 0.41 0.52 0.60 0.68 0.70 0.72 0.80 0.89 0.90 0.99 1.11 1.20 1.15 1.10 1.12 1.16 1.24 1.25 1.32 1.32 1.31 1.31 1.32 1.38 1.48 1.59 1.61 1.55
0.02 0.01 0.02 0.03 0.02 0.03 0.06 0.16 0.15 0.07 0.05 0.05 0.09 0.15 0.20 0.27 0.30 0.31 0.33 0.38 0.41 0.49 0.61 0.68 0.73 0.75 0.82 0.86 0.94 1.08 1.12 1.13 1.10 1.00 0.94 0.96 0.92 0.93 1.04 1.14 1.20 1.16 1.17 1.20 1.29 1.41 1.46 1.54 1.60
0.01 0.02 0.02 0.04 0.04 0.08 0.12 0.16 0.13 0.09 0.10 0.12 0.17 0.24 0.35 0.44 0.45 0.47 0.53 0.56 0.56 0.57 0.65 0.73 0.80 0.87 0.89 0.91 1.02 1.19 1.14 0.91 0.76 0.66 0.70 0.74 0.78 0.82 0.89 0.86 0.82 0.81 0.86 0.89 0.98 1.15 1.23 1.27 1.35
0.05 0.03 0.02 0.02 0.03 0.14 0.30 0.43 0.46 0.45 0.38 0.42 0.42 0.49 0.63 0.68 0.69 0.69 0.70 0.72 0.66 0.67 0.73 0.78 0.83 0.94 0.97 0.93 1.03 1.06 0.85 0.61 0.49 0.47 0.45 0.44 0.47 0.52 0.60 0.55 0.52 0.58 0.62 0.59 0.67 0.77 0.88 0.96 1.01
0.07 0.06 0.03 0.05 0.07 0.16 0.34 0.54 0.65 0.70 0.68 0.79 0.85 0.96 0.89 0.83 0.83 0.77 0.70 0.68 0.57 0.58 0.67 0.75 0.84 0.90 0.84 0.80 0.79 0.65 0.47 0.37 0.34 0.30 0.25 0.22 0.22 0.22 0.29 0.32 0.32 0.40 0.51 0.52 0.58 0.62 0.64 0.70 0.74